User: anonymous   Login
Location: NJAA Observatory
(40.6819°N, 74.8979°W)
Time: 21:52:08
(UTC-04:00)
Language:

CENTAUR R/B - Orbit

View from above orbital plane
View from above orbital plane
View from above satellite
View from above satellite

Ground track
Ground track

The orbit data is extracted from the following two-line orbital elements,

1 26906U 01040B   15241.86675965 0.00000060  00000-0  79537-4 0    07
2 26906  63.4635 217.5148 0296500 343.7720  16.2280 13.43961100    05
Epoch (UTC): 29 August 2015 20:48:08
Eccentricity: 0.0296500
inclination: 63.4635°
perigee height: 873 km
apogee height: 1316 km
right ascension of ascending node: 217.5148°
argument of perigee: 343.7720°
revolutions per day: 13.43961100
mean anomaly at epoch: 16.2280°
orbit number at epoch: 0

The dashed part of the orbit path shows where the satellite is in the earth's shadow,  

DLR